TimeCST,TemperatureF,Dew PointF,Humidity,Sea Level PressureIn,VisibilityMPH,Wind Direction,Wind SpeedMPH,Gust SpeedMPH,PrecipitationIn,Events,Conditions,WindDirDegrees,DateUTC
12:15 AM,35.6,30.2,81,30.35,10.0,West,4.6,-,N/A,,Clear,260,2013-11-07 06:15:00
12:35 AM,35.6,30.2,81,30.35,10.0,WSW,5.8,-,N/A,,Clear,250,2013-11-07 06:35:00
12:55 AM,35.6,28.4,75,30.35,10.0,West,4.6,-,N/A,,Clear,260,2013-11-07 06:55:00
1:15 AM,35.6,28.4,75,30.36,10.0,WSW,6.9,-,N/A,,Clear,250,2013-11-07 07:15:00
1:35 AM,35.6,28.4,75,30.36,10.0,WSW,6.9,-,N/A,,Clear,240,2013-11-07 07:35:00
1:55 AM,35.6,30.2,81,30.36,10.0,WSW,8.1,-,N/A,,Clear,240,2013-11-07 07:55:00
2:15 AM,35.6,30.2,81,30.36,10.0,WSW,6.9,-,N/A,,Clear,250,2013-11-07 08:15:00
2:35 AM,35.6,30.2,81,30.36,10.0,WSW,10.4,-,N/A,,Clear,240,2013-11-07 08:35:00
2:55 AM,37.4,30.2,75,30.36,10.0,WSW,6.9,-,N/A,,Clear,250,2013-11-07 08:55:00
3:15 AM,35.6,30.2,81,30.36,10.0,WSW,8.1,-,N/A,,Clear,250,2013-11-07 09:15:00
3:35 AM,35.6,30.2,81,30.36,10.0,WSW,9.2,-,N/A,,Clear,250,2013-11-07 09:35:00
3:55 AM,35.6,30.2,81,30.37,10.0,West,6.9,-,N/A,,Clear,260,2013-11-07 09:55:00
4:15 AM,35.6,28.4,75,30.37,10.0,WSW,6.9,-,N/A,,Clear,250,2013-11-07 10:15:00
4:35 AM,33.8,28.4,81,30.38,10.0,West,5.8,-,N/A,,Clear,260,2013-11-07 10:35:00
4:55 AM,33.8,28.4,81,30.38,10.0,WNW,5.8,-,N/A,,Clear,300,2013-11-07 10:55:00
5:15 AM,33.8,28.4,81,30.39,10.0,NNW,5.8,-,N/A,,Clear,330,2013-11-07 11:15:00
5:35 AM,33.8,28.4,81,30.39,10.0,NNW,5.8,-,N/A,,Clear,330,2013-11-07 11:35:00
5:55 AM,33.8,28.4,81,30.39,10.0,NNW,5.8,-,N/A,,Clear,330,2013-11-07 11:55:00
6:15 AM,35.6,28.4,75,30.39,10.0,NW,5.8,-,N/A,,Clear,320,2013-11-07 12:15:00
6:35 AM,35.6,28.4,75,30.40,10.0,WNW,3.5,-,N/A,,Clear,300,2013-11-07 12:35:00
6:55 AM,35.6,28.4,75,30.40,10.0,NW,4.6,-,N/A,,Clear,320,2013-11-07 12:55:00
7:15 AM,35.6,26.6,70,30.41,10.0,WNW,4.6,-,N/A,,Clear,300,2013-11-07 13:15:00
7:35 AM,33.8,28.4,81,30.42,10.0,West,6.9,-,N/A,,Clear,270,2013-11-07 13:35:00
7:55 AM,35.6,28.4,75,30.43,10.0,West,6.9,-,N/A,,Clear,280,2013-11-07 13:55:00
8:15 AM,37.4,30.2,75,30.44,10.0,WNW,4.6,-,N/A,,Clear,300,2013-11-07 14:15:00
8:35 AM,39.2,30.2,70,30.44,10.0,NW,6.9,-,N/A,,Clear,320,2013-11-07 14:35:00
8:55 AM,41.0,32.0,70,30.44,10.0,WNW,5.8,-,N/A,,Clear,290,2013-11-07 14:55:00
9:15 AM,42.8,33.8,70,30.45,10.0,NW,9.2,-,N/A,,Clear,310,2013-11-07 15:15:00
9:35 AM,44.6,33.8,66,30.45,10.0,NNW,5.8,-,N/A,,Clear,330,2013-11-07 15:35:00
9:55 AM,46.4,33.8,62,30.45,10.0,NW,5.8,-,N/A,,Clear,320,2013-11-07 15:55:00
10:15 AM,48.2,35.6,62,30.45,10.0,NNW,6.9,-,N/A,,Clear,340,2013-11-07 16:15:00
10:35 AM,50.0,35.6,58,30.45,10.0,North,8.1,-,N/A,,Clear,360,2013-11-07 16:35:00
10:55 AM,51.8,35.6,54,30.45,10.0,NNE,8.1,-,N/A,,Clear,30,2013-11-07 16:55:00
11:15 AM,51.8,35.6,54,30.45,10.0,North,10.4,-,N/A,,Clear,360,2013-11-07 17:15:00
11:35 AM,53.6,35.6,51,30.45,10.0,North,11.5,-,N/A,,Clear,10,2013-11-07 17:35:00
11:55 AM,53.6,33.8,47,30.44,10.0,NNE,9.2,-,N/A,,Clear,30,2013-11-07 17:55:00
12:15 PM,53.6,33.8,47,30.43,10.0,NE,9.2,-,N/A,,Clear,40,2013-11-07 18:15:00
12:35 PM,53.6,33.8,47,30.43,10.0,NE,6.9,-,N/A,,Clear,40,2013-11-07 18:35:00
12:55 PM,55.4,33.8,44,30.42,10.0,NNE,8.1,-,N/A,,Clear,30,2013-11-07 18:55:00
1:15 PM,55.4,33.8,44,30.41,10.0,NNE,4.6,-,N/A,,Clear,30,2013-11-07 19:15:00
1:35 PM,55.4,33.8,44,30.40,10.0,NNE,6.9,-,N/A,,Clear,20,2013-11-07 19:35:00
1:55 PM,55.4,33.8,44,30.39,10.0,NE,6.9,-,N/A,,Clear,40,2013-11-07 19:55:00
2:15 PM,55.4,32.0,41,30.39,10.0,Calm,Calm,-,N/A,,Clear,0,2013-11-07 20:15:00
2:35 PM,57.2,33.8,41,30.39,10.0,ENE,3.5,-,N/A,,Clear,60,2013-11-07 20:35:00
2:55 PM,57.2,33.8,41,30.38,10.0,Calm,Calm,-,N/A,,Clear,0,2013-11-07 20:55:00
3:15 PM,57.2,33.8,41,30.37,10.0,Calm,Calm,-,N/A,,Clear,0,2013-11-07 21:15:00
3:35 PM,55.4,33.8,44,30.37,10.0,Calm,Calm,-,N/A,,Clear,0,2013-11-07 21:35:00
3:55 PM,57.2,33.8,41,30.37,10.0,NNW,4.6,-,N/A,,Clear,330,2013-11-07 21:55:00
4:15 PM,57.2,33.8,41,30.37,10.0,Calm,Calm,-,N/A,,Clear,0,2013-11-07 22:15:00
4:35 PM,57.2,33.8,41,30.37,10.0,Calm,Calm,-,N/A,,Clear,0,2013-11-07 22:35:00
4:55 PM,55.4,32.0,41,30.37,10.0,North,3.5,-,N/A,,Clear,10,2013-11-07 22:55:00
5:15 PM,53.6,33.8,47,30.37,10.0,North,3.5,-,N/A,,Clear,10,2013-11-07 23:15:00
5:35 PM,53.6,32.0,44,30.37,10.0,Calm,Calm,-,N/A,,Clear,0,2013-11-07 23:35:00
5:55 PM,51.8,32.0,47,30.37,10.0,Calm,Calm,-,N/A,,Clear,0,2013-11-07 23:55:00
6:15 PM,51.8,32.0,47,30.37,5.0,East,3.5,-,N/A,,Clear,100,2013-11-08 00:15:00
6:35 PM,50.0,32.0,50,30.37,10.0,Calm,Calm,-,N/A,,Clear,0,2013-11-08 00:35:00
6:55 PM,48.2,33.8,58,30.37,10.0,SE,3.5,-,N/A,,Clear,130,2013-11-08 00:55:00
7:15 PM,48.2,33.8,58,30.37,10.0,SE,3.5,-,N/A,,Clear,130,2013-11-08 01:15:00
7:35 PM,46.4,33.8,62,30.36,10.0,ESE,3.5,-,N/A,,Clear,120,2013-11-08 01:35:00
7:55 PM,46.4,32.0,57,30.36,10.0,East,4.6,-,N/A,,Clear,100,2013-11-08 01:55:00
8:15 PM,46.4,30.2,53,30.35,10.0,East,5.8,-,N/A,,Clear,100,2013-11-08 02:15:00
8:35 PM,44.6,32.0,61,30.35,10.0,East,4.6,-,N/A,,Clear,100,2013-11-08 02:35:00
8:55 PM,44.6,30.2,57,30.35,10.0,ESE,4.6,-,N/A,,Clear,110,2013-11-08 02:55:00
9:15 PM,44.6,30.2,57,30.34,10.0,ESE,5.8,-,N/A,,Clear,110,2013-11-08 03:15:00
9:35 PM,42.8,30.2,61,30.34,10.0,ESE,5.8,-,N/A,,Clear,110,2013-11-08 03:35:00
9:55 PM,42.8,30.2,61,30.33,10.0,ESE,6.9,-,N/A,,Clear,120,2013-11-08 03:55:00
10:15 PM,42.8,32.0,66,30.32,10.0,SE,8.1,-,N/A,,Clear,130,2013-11-08 04:15:00
10:35 PM,42.8,32.0,66,30.32,10.0,SE,6.9,-,N/A,,Clear,130,2013-11-08 04:35:00
10:55 PM,41.0,30.2,65,30.32,10.0,SE,6.9,-,N/A,,Clear,130,2013-11-08 04:55:00
11:15 PM,39.2,32.0,75,30.32,10.0,SE,6.9,-,N/A,,Clear,140,2013-11-08 05:15:00
11:35 PM,39.2,32.0,75,30.31,10.0,SE,6.9,-,N/A,,Clear,140,2013-11-08 05:35:00
11:55 PM,39.2,32.0,75,30.30,10.0,SSE,8.1,-,N/A,,Clear,150,2013-11-08 05:55:00